Location: Ethel Rock
(53.4667°N, 4.5667°W)
Time: 01:15:59
(UTC+00:00)

SL-16 R/B - Pass Details

Date: 24 October 2020
Orbit: 843 x 847 km, 71.0° (Epoch: 26 November)

Event Time Altitude Azimuth Distance (km) Brightness Sun altitude
Exits shadow 05:37:20 - 317° (NW) 2,668 4.4 -13.3°
Reaches altitude 10° 05:38:20 10° 325° (NW) 2,477 4.3 -13.1°
Maximum altitude 05:41:03 13° 354° (N) 2,236 4.3 -12.7°
Drops below altitude 10° 05:43:47 10° 23° (NNE) 2,476 4.9 -12.3°
Sets 05:47:42 0° 50° (NE) 3,411 6.1 -11.7°
